Regional Weather Roundup
Issued by NWS

Home | Current Version | Previous Version | Graphics & Text | Print | Product List | Glossary On
Versions: 1 2 3 4 5 6 7 8 9 10 11 12 13 14 15 16 17 18 19 20 21 22 23 24 25 26 27 28 29 30 31 32 33 34 35 36 37 38 39 40 41 42 43 44 45 46 47 48 49 50
000
ASUS43 KLMK 242010
RWRKY
KENTUCKY REGIONAL WEATHER ROUNDUP
NATIONAL WEATHER SERVICE LOUISVILLE KY
400 PM EDT FRI MAR 24 2017

NOTE "FAIR" INDICATES FEW OR NO CLOUDS BELOW 12,000 FEET
WITH NO SIGNIFICANT WEATHER AND/OR OBSTRUCTIONS TO VISIBILITY.

KYZ001>023-026-027-061>063-070>075-242100-
WESTERN AND SOUTH CENTRAL KENTUCKY

CITY           SKY/WX    TMP DP  RH WIND       PRES   REMARKS
PADUCAH        MOSUNNY   73  55  53 S13G29    30.10F
HENDERSON      PTSUNNY   73  54  49 SW21G37   30.10F
OWENSBORO      PTSUNNY   76  56  49 SW17G26   30.13F
HOPKINSVILLE   CLOUDY    75  53  45 S24G30    30.16F
BOWLING GREEN  PTSUNNY   75  54  47 SW18      30.19F
GLASGOW        CLOUDY    72  52  49 SW12G20   30.20F
$$

KYZ024-025-028>034-038-045-046-053-242100-
NORTH CENTRAL KENTUCKY

CITY           SKY/WX    TMP DP  RH WIND       PRES   REMARKS
LOUISVILLE/SDF PTSUNNY   76  50  40 SW21G26   30.13F
LOUISVILLE/LOU CLOUDY    76  52  43 SW17G23   30.14F
FORT KNOX      CLOUDY    74  53  48 S16G23    30.14F
$$

KYZ035>037-039>044-047>052-055>060-089>105-242100-
NORTHEAST KENTUCKY

CITY           SKY/WX    TMP DP  RH WIND       PRES   REMARKS
LEXINGTON      MOSUNNY   76  51  41 S22G29    30.18F
COVINGTON      PTSUNNY   73  52  47 S13G26    30.13F
FRANKFORT      MOSUNNY   78  51  38 S17G28    30.15F
$$

KYZ054-064>069-076>088-106>120-242100-
SOUTHEAST KENTUCKY

CITY           SKY/WX    TMP DP  RH WIND       PRES   REMARKS
JACKSON        SUNNY     76  49  38 SW8G17    30.22F
LONDON         SUNNY     73  47  39 SW9G20    30.24F
SOMERSET       SUNNY     72  46  40 S13       30.23F
MIDDLESBORO    SUNNY     71  49  44 SW8       30.28F
MONTICELLO     PTCLDY    74  52  46 SE13G20   30.24F
$$





USA.gov is the U.S. government's official web portal to all federal, state and local government web resources and services.